Vorticity
9 9 8 4 -0 19 22 15 8 6 5 0 5 3 3 30 20 15 18 11 11 2 9 3 6 5 4 4 4 5 4 5 5 6 7 6 5 4 5 5 5 4 2
4 11 6 4 -2 4 4 24 9 9 7 7 6 9 4 21 -10 5 6 -0 2 6 10 2 4 6 4 3 3 5 6 6 6 6 7 6 5 4 3 4 4 3 5
5 6 8 1 7 11 11 15 24 8 9 9 3 11 7 -16 8 17 8 -3 0 18 4 2 3 5 3 3 3 5 4 6 5 5 6 5 6 5 4 5 5 3 2
6 8 9 3 13 21 20 19 18 10 13 8 3 7 6 13 9 13 -12 -1 1 23 3 2 4 3 3 3 2 3 6 5 5 6 5 5 6 10 9 6 8 7 7
6 7 11 7 13 12 12 16 14 10 6 10 8 6 6 1 6 11 5 7 4 11 3 2 4 5 4 2 2 3 6 6 6 5 5 5 5 5 4 4 6 5 8
5 6 9 8 11 15 20 14 13 5 4 5 4 -9 11 7 -3 -4 29 -34 13 1 2 3 5 5 3 2 2 3 5 4 5 6 5 4 4 4 3 1 2 4 4
6 9 13 9 14 15 20 17 6 39 14 7 -24 1 -2 10 30 -8 -8 1 31 -0 -6 2 5 4 2 2 2 2 5 3 3 5 5 4 3 5 4 4 7 5 6
7 9 6 2 1 22 11 11 12 30 -3 8 27 6 -11 4 -28 -9 2 3 4 -5 49 2 5 3 2 2 2 4 5 3 3 4 3 4 5 4 5 4 3 3 3
9 7 4 7 18 18 10 8 -12 0 -3 33 -4 3 16 7 -4 8 -8 4 17 21 6 3 3 3 3 3 3 4 4 3 3 4 4 4 4 4 3 3 3 4 5
9 10 6 7 10 9 -0 3 18 -11 38 -6 23 -4 -3 26 3 5 -3 18 7 19 21 2 2 4 2 4 3 4 4 4 5 5 5 6 6 6 6 5 3 3 4
7 13 8 5 5 7 14 13 2 11 -4 11 39 -0 -0 0 -2 7 -5 14 31 21 0 3 5 2 4 4 4 4 4 5 4 5 6 6 5 7 8 9 10 12 10
7 12 7 8 8 10 15 9 -1 7 9 12 -17 31 3 -0 -9 -3 -3 10 17 1 14 8 2 2 5 5 5 5 5 5 5 6 7 11 11 8 7 6 6 2 3
4 7 9 7 8 5 4 25 9 4 11 18 18 9 -1 12 17 24 -2 21 14 12 16 -3 6 5 5 5 5 6 6 8 8 8 8 6 3 3 3 3 2 5 5
4 3 9 8 8 7 4 4 30 7 5 8 32 23 -3 -11 17 15 25 9 21 15 14 5 -1 5 6 6 6 7 8 7 7 6 4 3 3 4 3 3 6 8 5
4 4 4 5 7 7 9 4 6 11 -3 12 1 10 26 29 22 43 20 14 12 15 8 -0 2 6 6 5 7 7 5 4 5 4 3 3 4 5 6 8 6 5 3
10 7 4 3 4 6 7 8 5 4 5 7 2 5 6 6 19 3 11 11 4 5 1 4 2 6 6 7 7 5 4 3 4 4 4 4 4 5 5 6 6 4 3
7 8 9 1 1 3 3 7 9 8 7 5 4 5 4 7 0 3 5 1 -2 1 2 6 6 6 8 7 6 4 3 3 3 3 4 5 5 6 6 6 6 6 5
7 7 4 10 9 3 2 4 5 6 8 8 6 5 7 6 7 7 -2 5 3 4 3 5 7 9 8 7 5 4 3 4 4 3 5 5 5 4 5 5 4 4 3
4 5 6 4 5 6 10 6 8 4 6 7 7 6 6 7 8 7 8 8 1 -2 4 6 9 8 6 5 4 3 2 4 5 5 4 4 3 4 4 4 4 4 3
4 4 5 6 6 6 4 6 7 3 6 5 5 5 5 6 6 7 7 8 9 8 10 10 8 8 5 4 3 2 3 4 3 3 4 5 5 4 5 6 7 7 7
4 4 5 6 4 5 6 8 5 5 7 4 5 4 5 4 5 6 6 6 10 9 8 9 8 5 5 4 3 2 3 2 2 2 3 4 4 5 6 7 8 7 7
5 5 5 5 4 2 4 4 5 9 3 6 8 6 4 5 6 6 4 5 5 6 7 6 4 4 4 6 6 4 3 3 2 3 3 3 4 3 3 3 3 4 3
6 5 6 5 4 4 4 3 6 9 11 11 4 4 7 5 3 3 4 5 6 6 6 6 5 5 5 5 6 4 4 3 4 4 4 4 4 4 5 4 4 4 4
7 6 6 4 3 3 5 6 6 6 7 8 7 8 5 4 7 8 5 3 4 5 6 6 8 8 8 8 8 8 8 7 8 9 8 8 9 10 11 10 9 10 10
8 7 6 5 6 8 6 6 5 7 3 5 6 5 7 8 5 2 3 5 6 5 4 3 3 4 4 5 5 6 5 6 6 5 4 5 5 7 7 8 9 10 10
10 9 9 6 4 6 9 8 7 7 9 8 8 7 9 9 9 11 7 4 3 3 3 4 6 5 5 4 4 4 4 4 5 4 5 3 5 5 4 3 3 4 4
Height
5776 5774 5773 5770 5770 5767 5765 5766 5768 5769 5772 5775 5778 5780 5782 5785 5787 5789 5792 5796 5798 5801 5803 5806 5809 5811 5814 5816 5818 5819 5820 5821 5823 5824 5826 5828 5829 5831 5833 5836 5836 5839 5839
5773 5769 5767 5766 5764 5762 5761 5762 5762 5765 5769 5772 5774 5776 5779 5781 5783 5786 5791 5793 5795 5798 5800 5803 5807 5810 5812 5815 5816 5818 5820 5821 5823 5824 5825 5828 5829 5831 5833 5835 5836 5837 5839
5769 5766 5764 5761 5759 5757 5757 5757 5759 5762 5765 5768 5769 5772 5775 5777 5781 5784 5787 5790 5793 5795 5798 5801 5804 5808 5811 5813 5815 5817 5819 5820 5821 5822 5824 5826 5829 5830 5832 5834 5836 5837 5839
5765 5763 5759 5757 5753 5751 5752 5753 5756 5759 5761 5763 5765 5767 5770 5773 5775 5779 5781 5785 5789 5793 5796 5799 5802 5805 5809 5811 5813 5816 5817 5818 5819 5821 5823 5825 5828 5829 5831 5833 5836 5837 5838
5761 5759 5755 5753 5750 5748 5748 5749 5751 5755 5757 5759 5761 5763 5764 5768 5771 5773 5778 5782 5787 5791 5794 5797 5800 5805 5807 5809 5811 5814 5816 5817 5819 5821 5824 5825 5827 5829 5831 5832 5833 5835 5837
5758 5755 5752 5749 5746 5744 5744 5746 5747 5750 5752 5754 5749 5757 5761 5764 5767 5770 5774 5777 5784 5788 5791 5795 5798 5802 5805 5807 5809 5811 5814 5816 5818 5820 5822 5824 5826 5828 5829 5831 5832 5834 5836
5754 5752 5750 5748 5745 5742 5742 5741 5745 5742 5746 5749 5744 5750 5760 5762 5765 5769 5773 5775 5779 5782 5786 5791 5795 5799 5802 5805 5807 5809 5812 5815 5816 5819 5821 5823 5824 5827 5828 5830 5832 5834 5835
5750 5749 5747 5746 5745 5742 5740 5739 5743 5737 5743 5747 5745 5754 5759 5763 5766 5768 5771 5774 5778 5780 5782 5786 5791 5796 5799 5802 5804 5807 5810 5812 5815 5817 5819 5820 5823 5825 5827 5829 5831 5832 5834
5747 5745 5744 5743 5743 5741 5740 5736 5740 5743 5745 5745 5748 5752 5756 5759 5763 5767 5769 5771 5772 5776 5779 5783 5788 5792 5796 5799 5801 5804 5807 5810 5812 5814 5817 5819 5821 5823 5825 5826 5828 5829 5831
5744 5743 5741 5741 5741 5740 5740 5738 5737 5741 5742 5744 5746 5751 5753 5757 5760 5763 5764 5766 5769 5772 5775 5778 5784 5788 5792 5796 5798 5801 5804 5807 5810 5811 5814 5816 5818 5820 5821 5823 5825 5827 5828
5741 5739 5738 5737 5738 5738 5738 5736 5737 5739 5741 5743 5745 5747 5751 5754 5757 5759 5762 5763 5766 5769 5771 5776 5781 5785 5789 5793 5796 5798 5801 5804 5806 5808 5810 5813 5816 5817 5818 5819 5822 5824 5826
5738 5735 5734 5734 5735 5736 5736 5737 5735 5736 5738 5740 5740 5742 5747 5750 5752 5755 5759 5761 5763 5766 5769 5774 5778 5782 5786 5789 5792 5795 5797 5800 5801 5804 5806 5810 5811 5813 5814 5817 5820 5821 5823
5736 5733 5731 5731 5732 5732 5732 5734 5735 5734 5734 5735 5737 5740 5743 5744 5748 5750 5754 5757 5761 5763 5766 5770 5775 5780 5783 5786 5788 5791 5793 5796 5798 5801 5803 5805 5807 5810 5812 5814 5817 5819 5821
5732 5732 5731 5728 5728 5728 5729 5731 5732 5733 5734 5734 5736 5738 5739 5742 5744 5748 5750 5753 5756 5760 5763 5767 5771 5776 5780 5782 5785 5787 5790 5793 5794 5797 5800 5802 5804 5807 5807 5810 5813 5815 5817
5726 5730 5728 5728 5727 5726 5727 5728 5729 5730 5732 5734 5735 5736 5739 5739 5741 5743 5745 5750 5754 5758 5761 5764 5769 5772 5775 5778 5780 5783 5785 5790 5790 5794 5797 5799 5800 5802 5804 5807 5809 5811 5812
5721 5723 5726 5725 5725 5725 5725 5725 5725 5727 5728 5730 5731 5734 5736 5739 5741 5740 5743 5746 5751 5755 5758 5762 5765 5769 5771 5774 5777 5779 5781 5785 5786 5789 5791 5794 5795 5797 5799 5801 5804 5806 5808
5715 5717 5720 5721 5721 5721 5724 5725 5725 5725 5726 5727 5729 5732 5733 5736 5737 5740 5744 5745 5747 5750 5754 5758 5760 5763 5766 5769 5772 5774 5776 5778 5782 5782 5786 5788 5790 5792 5794 5796 5798 5801 5803
5708 5709 5711 5715 5717 5717 5718 5719 5720 5721 5722 5724 5726 5727 5729 5731 5733 5736 5740 5742 5743 5745 5749 5752 5755 5757 5760 5763 5766 5769 5771 5773 5776 5778 5779 5782 5784 5786 5788 5790 5791 5793 5795
5697 5701 5703 5704 5708 5709 5712 5714 5717 5719 5719 5720 5720 5721 5724 5727 5729 5731 5734 5737 5739 5741 5743 5746 5749 5751 5753 5756 5758 5762 5764 5766 5768 5771 5774 5775 5777 5778 5780 5782 5784 5786 5787
5690 5691 5694 5696 5697 5700 5703 5705 5709 5711 5715 5715 5716 5716 5718 5720 5723 5724 5726 5729 5732 5736 5737 5740 5742 5745 5747 5749 5752 5754 5756 5759 5761 5763 5766 5767 5769 5770 5771 5773 5775 5777 5779
5681 5683 5684 5686 5688 5691 5695 5697 5700 5702 5705 5707 5709 5710 5712 5714 5716 5717 5719 5721 5724 5727 5729 5732 5734 5737 5738 5741 5745 5746 5748 5751 5753 5755 5756 5759 5760 5762 5763 5764 5765 5767 5768
5671 5673 5675 5676 5678 5680 5683 5685 5688 5691 5693 5696 5700 5702 5704 5706 5707 5708 5710 5713 5715 5717 5719 5722 5725 5727 5730 5733 5736 5738 5741 5743 5744 5745 5747 5748 5749 5752 5754 5753 5755 5756 5757
5661 5663 5664 5667 5668 5669 5672 5674 5677 5681 5685 5688 5689 5691 5692 5694 5696 5698 5700 5703 5706 5709 5711 5713 5715 5717 5720 5722 5724 5727 5728 5729 5731 5733 5735 5736 5737 5739 5741 5741 5742 5744 5745
5649 5650 5652 5655 5657 5658 5660 5662 5665 5669 5672 5674 5675 5677 5680 5683 5686 5689 5691 5692 5695 5697 5699 5701 5704 5708 5710 5711 5713 5715 5716 5718 5718 5720 5721 5723 5724 5727 5727 5728 5729 5730 5731
5637 5639 5640 5642 5646 5647 5647 5649 5652 5657 5658 5660 5663 5665 5666 5668 5671 5673 5676 5678 5681 5683 5687 5689 5691 5693 5698 5699 5700 5702 5704 5706 5707 5709 5711 5711 5712 5712 5712 5713 5715 5715 5715
5625 5627 5629 5630 5632 5635 5637 5636 5639 5642 5645 5647 5649 5650 5653 5655 5657 5659 5662 5664 5667 5670 5672 5675 5677 5680 5683 5685 5687 5688 5690 5692 5693 5694 5696 5699 5698 5698 5698 5698 5699 5699 5700